| time (UTC) | temp F | wind direction | speed knots | gust knots | rain 1hr in | rain 24hr in | rain mn in | humidity % | barometer mb |
| 20260905134522 | 74 | 142 | 1.7 | 5.2 | 0.00 | 0.00 | 0.00 | 85 | 1014.1 |
| 20260905133016 | 74 | 73 | 1.7 | 7.0 | 0.00 | 0.00 | 0.00 | 85 | 1013.8 |
| 20260905131526 | 73 | 89 | 1.7 | 6.1 | 0.00 | 0.00 | 0.00 | 87 | 1013.2 |
| 20260905130009 | 73 | 119 | 0.9 | 6.1 | 0.00 | 0.00 | 0.00 | 88 | 1013.0 |
| 20260905124510 | 72 | 128 | 2.6 | 5.2 | 0.00 | 0.00 | 0.00 | 89 | 1012.8 |
| 20260905123009 | 72 | 94 | 0.9 | 4.3 | 0.00 | 0.00 | 0.00 | 89 | 1012.8 |
| 20260905121510 | 72 | 105 | 0.9 | 6.1 | 0.00 | 0.00 | 0.00 | 89 | 1012.8 |
| 20260905120038 | 72 | 142 | 1.7 | 5.2 | 0.00 | 0.00 | 0.00 | 90 | 1012.9 |
| 20260905114544 | 71 | 66 | 0.9 | 3.5 | 0.00 | 0.00 | 0.00 | 90 | 1012.8 |
| 20260905113038 | 71 | 88 | 1.7 | 3.5 | 0.00 | 0.00 | 0.00 | 90 | 1012.7 |
| 20260905111541 | 71 | 107 | 0.9 | 4.3 | 0.00 | 0.00 | 0.00 | 90 | 1012.7 |
| 20260905110036 | 71 | 101 | 0.0 | 2.6 | 0.00 | 0.00 | 0.00 | 90 | 1012.6 |
| 20260905104532 | 71 | 79 | 2.6 | 7.0 | 0.00 | 0.00 | 0.00 | 92 | 1012.4 |
| 20260905103029 | 70 | 106 | 2.6 | 7.0 | 0.00 | 0.00 | 0.00 | 92 | 1012.4 |
| 20260905101539 | 70 | 132 | 2.6 | 7.0 | 0.00 | 0.00 | 0.00 | 92 | 1011.8 |
| 20260905100027 | 71 | 146 | 2.6 | 5.2 | 0.00 | 0.00 | 0.00 | 91 | 1011.7 |
| 20260905094525 | 71 | 113 | 0.9 | 4.3 | 0.00 | 0.00 | 0.00 | 91 | 1011.7 |
| 20260905093023 | 70 | 97 | 0.0 | 0.0 | 0.00 | 0.00 | 0.00 | 90 | 1011.6 |
| 20260905091522 | 71 | 134 | 0.0 | 0.0 | 0.00 | 0.00 | 0.00 | 91 | 1011.9 |
| 20260905090022 | 71 | 96 | 0.0 | 4.3 | 0.00 | 0.00 | 0.00 | 92 | 1012.0 |
| 20260905084620 | 71 | 103 | 0.0 | 3.5 | 0.00 | 0.00 | 0.00 | 92 | 1012.0 |
| 20260905083017 | 70 | 88 | 0.0 | 1.7 | 0.00 | 0.00 | 0.00 | 92 | 1012.1 |
| 20260905081517 | 70 | 98 | 0.0 | 2.6 | 0.00 | 0.00 | 0.00 | 92 | 1012.2 |
| 20260905080018 | 70 | 120 | 0.0 | 2.6 | 0.00 | 0.00 | 0.00 | 92 | 1012.2 |
| 20260905074516 | 70 | 107 | 0.0 | 0.9 | 0.00 | 0.00 | 0.00 | 91 | 1012.3 |
| 20260905073016 | 71 | 90 | 0.9 | 6.1 | 0.00 | 0.00 | 0.00 | 90 | 1012.3 |
| 20260905071511 | 71 | 118 | 0.0 | 2.6 | 0.00 | 0.00 | 0.00 | 89 | 1012.2 |
| 20260905070013 | 71 | 84 | 0.9 | 5.2 | 0.00 | 0.00 | 0.00 | 88 | 1012.0 |
| 20260905064511 | 71 | 66 | 0.0 | 0.0 | 0.00 | 0.00 | 0.00 | 87 | 1012.0 |
| 20260905063004 | 72 | 92 | 0.0 | 3.5 | 0.00 | 0.00 | 0.00 | 87 | 1011.8 |
| 20260905061502 | 71 | 67 | 0.0 | 0.0 | 0.00 | 0.00 | 0.00 | 87 | 1011.7 |
| 20260905060101 | 72 | 101 | 0.0 | 0.0 | 0.00 | 0.00 | 0.00 | 86 | 1011.8 |
| 20260905054557 | 73 | 115 | 0.0 | 1.7 | 0.00 | 0.00 | 0.00 | 84 | 1011.8 |
| 20260905053059 | 74 | 127 | 1.7 | 7.8 | 0.00 | 0.00 | 0.00 | 84 | 1011.6 |
| 20260905051553 | 74 | 66 | 0.0 | 4.3 | 0.00 | 0.00 | 0.00 | 83 | 1011.4 |
| 20260905050051 | 73 | 65 | 0.0 | 0.0 | 0.00 | 0.00 | 0.00 | 82 | 1011.3 |
| 20260905044550 | 75 | 5 | 0.0 | 0.0 | 0.00 | 0.00 | 0.00 | 83 | 1011.3 |
| 20260905043046 | 74 | 28 | 0.0 | 0.0 | 0.00 | 0.00 | 0.00 | 80 | 1011.3 |
| 20260905041550 | 75 | 5 | 0.0 | 1.7 | 0.00 | 0.00 | 0.00 | 80 | 1011.3 |
| 20260905040042 | 76 | 5 | 0.0 | 4.3 | 0.00 | 0.00 | 0.00 | 81 | 1011.1 |
| 20260905034541 | 76 | 24 | 0.0 | 0.0 | 0.00 | 0.00 | 0.00 | 80 | 1011.2 |
| 20260905033009 | 77 | 355 | 0.0 | 0.9 | 0.00 | 0.00 | 0.00 | 80 | 1011.2 |
| 20260905031506 | 78 | 360 | 0.0 | 2.6 | 0.00 | 0.00 | 0.00 | 79 | 1011.2 |
| 20260905030004 | 79 | 63 | 0.0 | 6.1 | 0.00 | 0.00 | 0.00 | 79 | 1011.1 |
| 20260905024601 | 79 | 127 | 0.0 | 3.5 | 0.00 | 0.00 | 0.00 | 81 | 1011.1 |
| 20260905023059 | 79 | 144 | 0.0 | 1.7 | 0.00 | 0.00 | 0.00 | 82 | 1010.8 |
| 20260905021557 | 79 | 92 | 0.0 | 0.9 | 0.00 | 0.00 | 0.00 | 81 | 1010.8 |
| 20260905014551 | 80 | 48 | 0.0 | 0.0 | 0.00 | 0.00 | 0.00 | 79 | 1010.5 |
| 20260905013047 | 81 | 85 | 0.0 | 2.6 | 0.00 | 0.00 | 0.00 | 80 | 1010.2 |
| 20260905011544 | 81 | 46 | 0.0 | 4.3 | 0.00 | 0.00 | 0.00 | 79 | 1010.0 |
| 20260905010040 | 83 | 315 | 0.0 | 2.6 | 0.00 | 0.00 | 0.00 | 79 | 1009.7 |
| 20260905004538 | 83 | 38 | 0.0 | 4.3 | 0.00 | 0.00 | 0.00 | 78 | 1009.4 |
| 20260905003032 | 84 | 74 | 0.0 | 4.3 | 0.00 | 0.00 | 0.00 | 77 | 1009.2 |
| 20260905001529 | 85 | 360 | 0.0 | 5.2 | 0.00 | 0.00 | 0.00 | 77 | 1009.2 |
| 20260905000026 | 86 | 5 | 0.0 | 3.5 | 0.00 | 0.00 | 0.00 | 74 | 1009.1 |
| 20260904234523 | 87 | 350 | 0.0 | 3.5 | 0.00 | 0.00 | 0.00 | 74 | 1009.1 |
| 20260904233021 | 87 | 31 | 0.0 | 3.5 | 0.00 | 0.00 | 0.00 | 73 | 1009.0 |
| 20260904231526 | 88 | 18 | 0.0 | 3.5 | 0.00 | 0.00 | 0.00 | 72 | 1009.0 |
| 20260904230016 | 88 | 355 | 5.2 | 9.6 | 0.00 | 0.00 | 0.00 | 72 | 1008.7 |
| 20260904224516 | 88 | 348 | 6.1 | 11.3 | 0.00 | 0.00 | 0.00 | 71 | 1008.6 |
| 20260904223019 | 89 | 355 | 4.3 | 13.0 | 0.00 | 0.00 | 0.00 | 71 | 1008.4 |
| 20260904221510 | 90 | 19 | 7.0 | 12.2 | 0.00 | 0.00 | 0.00 | 70 | 1008.2 |
| 20260904220008 | 92 | 334 | 4.3 | 10.4 | 0.00 | 0.00 | 0.00 | 65 | 1008.1 |
| 20260904214537 | 95 | 360 | 0.0 | 4.3 | 0.00 | 0.00 | 0.00 | 53 | 1007.9 |
| 20260904213037 | 95 | 332 | 0.0 | 4.3 | 0.00 | 0.00 | 0.00 | 53 | 1007.9 |
| 20260904211506 | 96 | 271 | 1.7 | 6.1 | 0.00 | 0.00 | 0.00 | 50 | 1007.8 |
| 20260904210018 | 93 | 259 | 0.0 | 2.6 | 0.00 | 0.00 | 0.00 | 56 | 1007.8 |
| 20260904204502 | 96 | 336 | 0.0 | 2.6 | 0.00 | 0.00 | 0.00 | 53 | 1007.7 |
| 20260904203113 | 96 | 114 | 0.0 | 0.0 | 0.00 | 0.00 | 0.00 | 55 | 1007.8 |
| 20260904201557 | 96 | 318 | 0.0 | 1.7 | 0.00 | 0.00 | 0.00 | 55 | 1007.9 |
| 20260904200110 | 94 | 125 | 0.0 | 2.6 | 0.00 | 0.00 | 0.00 | 58 | 1008.0 |
| 20260904194526 | 93 | 350 | 0.0 | 6.1 | 0.00 | 0.00 | 0.00 | 61 | 1008.1 |
| 20260904193024 | 95 | 221 | 0.0 | 2.6 | 0.00 | 0.00 | 0.00 | 57 | 1008.1 |
| 20260904191521 | 94 | 119 | 1.7 | 4.3 | 0.00 | 0.00 | 0.00 | 60 | 1008.2 |
| 20260904190025 | 91 | 261 | 0.0 | 4.3 | 0.00 | 0.00 | 0.00 | 64 | 1008.4 |
| 20260904184518 | 92 | 152 | 0.0 | 5.2 | 0.00 | 0.00 | 0.00 | 61 | 1008.3 |
| 20260904183017 | 94 | 101 | 0.9 | 4.3 | 0.00 | 0.00 | 0.00 | 59 | 1008.3 |
| 20260904181513 | 94 | 117 | 0.9 | 8.7 | 0.00 | 0.00 | 0.00 | 59 | 1008.3 |
| 20260904180011 | 94 | 151 | 0.0 | 4.3 | 0.00 | 0.00 | 0.00 | 59 | 1008.2 |
| 20260904174509 | 94 | 78 | 0.0 | 4.3 | 0.00 | 0.00 | 0.00 | 58 | 1008.2 |
| 20260904173007 | 92 | 128 | 0.0 | 4.3 | 0.00 | 0.00 | 0.00 | 61 | 1008.3 |
| 20260904171501 | 92 | 128 | 0.9 | 4.3 | 0.00 | 0.00 | 0.00 | 60 | 1008.2 |
| 20260904170100 | 92 | 79 | 0.0 | 6.1 | 0.00 | 0.00 | 0.00 | 60 | 1008.1 |
| 20260904164557 | 90 | 126 | 0.9 | 6.1 | 0.00 | 0.00 | 0.00 | 62 | 1008.2 |
| 20260904163050 | 90 | 99 | 0.0 | 4.3 | 0.00 | 0.00 | 0.00 | 62 | 1008.3 |
| 20260904161541 | 89 | 129 | 0.0 | 6.1 | 0.00 | 0.00 | 0.00 | 63 | 1008.4 |
| 20260904160037 | 89 | 86 | 0.0 | 4.3 | 0.00 | 0.00 | 0.00 | 64 | 1008.4 |
| 20260904154534 | 86 | 274 | 0.0 | 0.0 | 0.00 | 0.00 | 0.00 | 69 | 1008.5 |
| 20260904153036 | 85 | 142 | 0.0 | 1.7 | 0.00 | 0.00 | 0.00 | 67 | 1008.6 |
| 20260904151503 | 84 | 186 | 0.0 | 1.7 | 0.00 | 0.00 | 0.00 | 71 | 1008.6 |
| 20260904150005 | 83 | 174 | 0.0 | 1.7 | 0.00 | 0.00 | 0.00 | 71 | 1008.5 |
| 20260904144559 | 82 | 13 | 0.0 | 0.9 | 0.00 | 0.00 | 0.00 | 72 | 1008.3 |
| 20260904143059 | 81 | 250 | 0.0 | 0.9 | 0.00 | 0.00 | 0.00 | 77 | 1008.5 |
| 20260904141558 | 80 | 109 | 0.0 | 0.9 | 0.00 | 0.00 | 0.00 | 78 | 1008.4 |
| 20260904140057 | 80 | 110 | 0.0 | 3.5 | 0.00 | 0.00 | 0.00 | 78 | 1008.4 |